Terminal Aerodrome Forecast
Issued by NWS Tulsa, OK

Home | Current Version | Previous Version | Text Only | Print | Product List | Glossary On
Versions: 1 2 3 4 5 6 7 8 9 10 11 12
000
FTUS44 KTSA 311127
TAFFSM
TAF
KFSM 311127Z 3112/0112 07003KT P6SM SCT120
     FM311700 10008KT P6SM SCT120
     FM010300 07004KT P6SM FEW120=

USA.gov is the U.S. government's official web portal to all federal, state and local government web resources and services.